Location: Ballingbuur
(53.0000°N, 5.7667°E)
Time: 06:50:47
(UTC+00:00)

Cosmos 2181 Rocket - Pass Details

Date: 29 November 2020
Orbit: 951 x 1015 km, 82.9° (Epoch: 23 January)

Event Time Altitude Azimuth Distance (km) Brightness Sun altitude
Rises 04:54:01 0° 346° (NNW) 3,695 6.8 -21.7°
Reaches altitude 10° 04:56:37 10° 342° (NNW) 2,734 6.1 -21.3°
Maximum altitude 05:02:37 51° 269° (W) 1,197 4.0 -20.4°
Drops below altitude 10° 05:08:31 10° 195° (SSW) 2,682 6.3 -19.5°
Sets 05:11:02 0° 190° (S) 3,619 7.0 -19.2°
